Temperature
4 4 4 3 3 3 3 3 3 3 2 2 2 2 2 2 2 2 2 2 2 2 1 1 1 2 1 1 1 1 0 0 0 0 1 1 1 1 2 2 2 2 3
4 3 3 3 3 3 3 2 2 2 2 2 2 2 2 2 2 2 1 1 1 1 1 1 1 1 1 1 1 0 0 0 0 0 0 1 1 1 1 2 2 2 2
3 3 3 3 3 3 2 2 2 2 2 2 2 1 1 1 1 1 1 1 1 1 1 1 1 0 0 0 0 -0 -0 -0 -0 -0 -0 0 0 1 1 1 1 1 2
3 3 3 2 2 2 2 2 2 1 1 1 1 1 1 1 1 1 1 1 1 1 1 0 0 0 0 -0 -0 -0 -0 -0 -0 -0 -0 -0 0 0 0 0 1 1 1
3 3 2 2 2 2 2 1 1 1 1 1 1 1 1 1 1 1 1 0 0 0 0 0 0 -0 -0 -1 -1 -1 -1 -1 -1 -1 -1 -1 -0 -0 -0 0 -0 0 1
3 2 2 2 2 2 2 1 1 1 1 1 1 0 0 0 0 0 0 0 0 -0 -0 -0 -0 -0 -1 -1 -1 -1 -1 -1 -1 -1 -1 -1 -1 -1 -0 -0 -0 -0 -0
2 2 2 2 1 1 1 1 1 0 0 0 0 0 0 0 -0 -0 -0 -0 -0 -0 -0 -0 -1 -1 -1 -1 -1 -1 -1 -1 -1 -1 -1 -1 -1 -1 -1 -1 -1 -1 -1
2 2 1 1 1 1 1 1 0 0 -0 -0 -0 -0 -0 -0 -0 -1 -1 -1 -1 -1 -1 -1 -1 -1 -1 -1 -1 -1 -1 -1 -1 -1 -1 -1 -1 -1 -1 -1 -1 -1 -1
2 1 1 1 1 1 0 0 0 -0 -0 -0 -1 -1 -1 -1 -1 -1 -1 -1 -1 -1 -1 -1 -1 -1 -1 -2 -2 -2 -2 -1 -2 -1 -1 -1 -2 -1 -2 -2 -2 -2 -2
1 1 1 0 0 0 0 -0 -0 -0 -0 -1 -1 -1 -1 -1 -1 -1 -1 -2 -2 -2 -2 -2 -2 -2 -2 -2 -2 -2 -2 -2 -2 -2 -2 -2 -2 -2 -2 -2 -2 -2 -2
1 1 0 0 -0 -0 -0 -0 -1 -1 -1 -1 -1 -2 -2 -1 -2 -2 -2 -2 -2 -3 -3 -2 -2 -2 -2 -3 -3 -3 -2 -2 -2 -2 -2 -2 -2 -2 -2 -2 -2 -2 -2
0 0 -0 -0 -0 -1 -1 -1 -1 -1 -1 -1 -2 -2 -2 -2 -2 -2 -2 -2 -3 -3 -3 -3 -3 -3 -3 -3 -3 -3 -3 -3 -3 -3 -3 -3 -3 -2 -2 -2 -2 -2 -2
-0 -0 -0 -1 -1 -1 -1 -1 -1 -1 -2 -2 -2 -2 -2 -2 -2 -3 -3 -3 -3 -3 -3 -3 -3 -3 -3 -3 -3 -3 -3 -3 -3 -3 -3 -3 -3 -3 -3 -2 -2 -2 -2
-0 -0 -1 -1 -1 -1 -1 -1 -1 -1 -2 -2 -2 -2 -3 -3 -3 -3 -3 -3 -3 -3 -3 -3 -3 -3 -3 -3 -3 -4 -3 -3 -3 -3 -3 -3 -3 -3 -3 -3 -3 -3 -2
-1 -1 -1 -1 -1 -1 -1 -2 -2 -2 -2 -3 -3 -3 -3 -3 -3 -3 -3 -3 -3 -3 -4 -4 -4 -4 -4 -4 -4 -4 -4 -4 -4 -4 -4 -4 -4 -3 -3 -3 -3 -3 -3
-1 -1 -1 -1 -1 -2 -2 -2 -2 -2 -2 -3 -3 -3 -3 -3 -3 -3 -3 -3 -4 -4 -4 -4 -4 -4 -4 -4 -4 -4 -4 -4 -4 -4 -4 -4 -4 -4 -4 -4 -4 -3 -3
-1 -1 -1 -1 -2 -2 -2 -2 -2 -2 -3 -3 -3 -3 -3 -3 -3 -3 -3 -4 -4 -4 -4 -4 -4 -5 -5 -4 -4 -4 -4 -4 -4 -4 -4 -4 -4 -4 -4 -4 -4 -4 -4
-1 -1 -1 -2 -2 -2 -2 -2 -3 -3 -3 -3 -3 -3 -3 -3 -3 -3 -4 -4 -4 -4 -4 -5 -5 -5 -5 -5 -5 -5 -5 -4 -4 -4 -4 -5 -5 -5 -5 -5 -4 -4 -4
-1 -1 -2 -2 -2 -2 -2 -3 -3 -3 -3 -3 -3 -4 -4 -4 -4 -4 -4 -4 -4 -4 -5 -5 -5 -5 -5 -5 -5 -5 -5 -5 -5 -5 -5 -5 -5 -5 -5 -5 -5 -5 -5
-2 -2 -2 -2 -2 -2 -2 -3 -3 -3 -3 -3 -4 -4 -4 -4 -4 -4 -4 -4 -4 -5 -5 -5 -5 -5 -5 -5 -5 -5 -5 -5 -5 -5 -5 -5 -5 -5 -5 -5 -5 -5 -5
-2 -2 -2 -2 -2 -2 -3 -3 -3 -3 -3 -3 -4 -4 -4 -4 -4 -4 -5 -5 -5 -5 -5 -5 -5 -5 -5 -5 -5 -5 -5 -5 -5 -5 -5 -5 -5 -5 -5 -5 -5 -5 -5
-2 -2 -2 -3 -3 -3 -3 -3 -3 -3 -4 -4 -4 -4 -4 -4 -4 -5 -5 -5 -5 -5 -5 -5 -5 -5 -5 -5 -5 -5 -5 -5 -5 -5 -5 -5 -5 -5 -5 -5 -5 -5 -5
-3 -3 -3 -3 -3 -3 -3 -3 -3 -4 -4 -4 -4 -4 -4 -4 -5 -5 -5 -5 -5 -5 -5 -5 -5 -5 -5 -5 -5 -5 -5 -5 -5 -5 -5 -5 -5 -5 -5 -5 -5 -5 -5
-3 -3 -3 -3 -3 -3 -3 -4 -4 -4 -4 -4 -4 -4 -4 -5 -5 -5 -5 -5 -5 -5 -5 -5 -5 -5 -5 -5 -5 -5 -5 -6 -6 -6 -6 -6 -6 -6 -6 -6 -5 -5 -5
-3 -3 -3 -3 -3 -3 -4 -4 -4 -4 -4 -4 -4 -4 -5 -5 -5 -5 -5 -5 -5 -5 -5 -5 -5 -5 -5 -5 -5 -5 -6 -6 -6 -6 -6 -6 -6 -6 -6 -6 -6 -5 -5
-3 -3 -4 -4 -4 -4 -4 -4 -4 -4 -4 -4 -5 -5 -5 -5 -5 -5 -5 -5 -5 -5 -5 -5 -5 -5 -5 -5 -6 -6 -6 -6 -6 -6 -6 -6 -6 -6 -6 -6 -6 -6 -6
Wind_Speed
4 4 4 4 4 4 3 4 3 3 3 3 3 3 3 3 3 3 3 3 4 3 3 3 3 3 3 2 3 3 3 3 6 5 4 3 4 5 5 5 6 6 6
4 4 4 3 3 4 4 4 3 3 3 3 3 3 3 3 3 3 4 4 4 4 4 4 4 3 4 3 3 4 4 4 4 6 4 4 4 4 4 4 4 5 5
3 4 4 3 4 4 4 4 3 3 3 3 3 3 3 3 3 3 4 4 4 5 5 5 5 4 5 4 4 4 4 4 4 4 4 3 4 3 3 4 4 3 4
3 4 4 5 5 5 4 4 4 4 4 4 3 3 4 4 3 3 3 3 4 4 4 5 5 5 6 5 5 4 3 3 3 3 4 3 3 2 2 2 3 3 4
3 4 5 5 4 4 4 4 4 4 4 4 4 3 3 3 4 3 3 3 3 3 3 4 5 6 6 5 4 3 3 3 3 3 4 4 3 2 2 2 3 4 3
4 5 4 4 4 4 4 4 4 4 4 3 4 4 4 4 5 5 4 3 3 3 4 4 4 6 7 7 6 5 4 4 4 3 4 4 4 3 3 3 2 3 3
4 4 4 4 4 4 4 4 4 4 4 4 4 4 4 5 6 5 5 3 3 4 4 4 4 5 5 4 5 5 5 6 6 5 5 5 4 4 3 3 3 3 4
4 4 4 4 4 4 4 5 4 4 4 4 4 4 4 5 6 5 5 3 3 4 4 4 5 5 5 4 3 2 3 4 5 5 4 5 4 4 3 3 3 3 3
5 5 5 4 4 4 5 5 4 4 4 4 4 4 4 5 6 6 5 2 3 4 4 4 4 4 6 4 2 3 3 3 5 5 5 4 4 4 3 1 1 1 3
6 5 5 4 5 5 5 5 4 4 4 4 4 4 4 4 6 6 5 2 3 3 3 3 5 5 5 4 3 3 4 3 2 2 3 3 3 3 4 2 3 2 2
5 4 4 4 5 5 4 4 3 3 3 3 4 3 4 4 5 6 5 3 3 2 3 3 3 5 5 4 3 3 4 2 1 1 1 2 2 2 2 2 3 3 3
3 3 4 4 4 3 4 3 3 3 3 3 3 3 3 3 4 5 6 5 3 3 3 3 3 4 4 3 3 2 2 1 0 0 1 2 2 2 2 3 3 3 4
3 3 3 3 3 3 4 4 3 3 3 3 3 3 3 2 3 5 5 5 4 3 2 3 3 3 3 2 2 2 1 0 1 1 2 2 2 2 2 2 2 2 3
3 3 2 2 2 2 2 3 3 3 3 4 3 3 3 2 2 2 2 3 3 2 1 1 2 2 1 1 1 1 0 1 1 1 2 2 2 2 2 2 2 2 2
3 2 2 2 2 2 2 2 3 3 4 4 4 3 3 4 4 4 3 2 2 2 1 0 0 0 0 0 0 0 0 1 1 1 1 1 2 2 2 2 2 2 2
2 2 2 2 2 2 2 2 3 3 5 5 5 4 4 4 4 4 4 3 3 3 2 1 1 1 1 1 1 1 1 1 1 1 1 1 2 2 3 3 2 2 3
3 3 2 2 2 2 2 2 2 2 3 4 4 5 4 4 4 4 4 4 3 3 1 2 2 2 2 2 2 2 2 2 1 1 1 2 2 2 3 3 3 3 3
3 3 2 2 2 2 3 3 2 2 2 2 3 4 4 4 3 3 3 2 2 2 2 2 2 2 2 2 2 2 2 1 1 1 1 2 2 2 3 3 3 3 3
2 2 2 2 2 2 2 2 2 2 2 2 2 2 3 2 2 2 2 2 2 2 2 2 2 3 2 2 2 2 2 1 1 1 1 2 2 2 3 3 3 4 4
2 2 2 2 2 2 2 2 2 2 2 2 2 2 1 1 1 1 1 1 2 2 2 2 2 2 2 2 2 2 2 2 2 2 2 2 2 2 3 4 3 3 3
1 2 1 1 1 1 2 2 2 2 2 2 2 2 2 2 2 2 2 2 2 2 3 3 2 3 3 2 2 2 2 2 2 2 2 2 2 3 3 3 3 3 3
1 1 1 1 1 1 1 2 2 2 2 2 1 1 2 1 2 2 2 2 2 2 2 2 2 3 3 3 3 3 3 3 3 2 2 2 2 3 3 3 3 3 3
1 1 1 1 1 1 1 1 1 2 2 2 1 1 1 1 1 1 1 1 1 1 1 2 2 2 2 3 3 3 4 4 3 3 3 3 3 3 3 3 3 3 3
1 1 1 1 1 1 1 1 1 1 1 1 1 1 1 1 1 1 1 1 1 1 1 2 2 2 3 3 3 3 4 4 4 4 4 4 3 3 3 3 3 3 3
1 1 1 1 1 1 1 1 1 1 1 1 1 1 1 1 1 1 1 0 1 1 1 1 1 2 2 3 3 3 4 4 4 3 3 3 3 3 3 2 2 3 3
1 1 1 1 1 1 1 1 1 1 1 1 1 1 1 1 1 1 0 0 0 1 1 1 2 2 2 3 3 3 3 3 3 3 2 2 2 2 2 2 2 2 2
Wind_Direction
221 218 222 225 221 216 222 231 230 231 227 226 230 232 234 235 229 218 219 220 215 223 229 224 237 234 234 235 242 236 236 238 259 277 274 274 272 279 292 295 295 296 297
220 215 219 221 215 217 226 234 228 225 226 228 224 232 235 234 230 221 226 225 218 220 228 227 236 234 237 236 240 238 239 240 247 268 275 274 267 273 282 287 296 296 290
213 210 218 221 219 223 227 228 225 223 228 236 224 229 237 235 232 228 224 225 224 222 224 226 235 233 238 238 244 241 241 248 242 252 269 271 275 277 298 299 297 293 299
214 214 222 228 226 227 227 227 228 225 224 228 229 233 237 232 227 227 224 227 230 230 230 229 233 233 237 236 241 239 239 247 252 254 264 270 273 278 283 292 308 313 314
218 224 229 233 230 226 224 228 229 229 231 229 227 236 242 234 225 218 215 222 226 238 241 239 239 244 247 246 251 237 227 238 250 259 263 276 271 278 273 275 293 309 313
217 228 229 228 227 224 222 224 225 231 236 231 228 231 240 245 244 228 213 216 226 235 247 251 248 245 250 253 260 257 242 234 235 240 255 261 265 263 269 277 288 307 306
224 229 226 223 227 227 221 220 226 229 234 237 238 235 242 252 246 236 221 206 219 233 240 247 254 252 250 245 253 260 260 258 247 238 244 247 255 250 248 259 266 280 272
230 231 228 225 231 228 219 222 228 228 226 235 241 238 245 254 252 242 228 213 221 235 238 239 247 255 246 232 225 250 260 259 260 258 247 251 254 253 235 239 252 277 283
231 231 228 222 226 224 224 227 228 225 231 236 239 235 239 253 253 245 230 215 230 247 250 247 249 250 247 242 215 239 265 268 276 274 276 281 281 280 272 234 271 296 293
235 232 227 221 220 224 229 231 231 226 229 234 245 237 234 243 251 247 228 210 229 245 255 252 257 259 255 250 212 219 245 258 271 299 300 299 293 279 277 231 216 249 276
232 225 226 223 221 223 226 229 222 222 223 231 243 245 238 242 250 247 238 213 217 236 252 255 255 262 268 268 249 227 247 262 231 249 277 291 300 283 270 259 235 226 240
214 219 229 228 224 219 212 222 214 207 220 237 245 251 248 244 247 248 246 241 227 218 240 253 255 258 265 269 261 264 276 274 168 266 276 281 298 305 298 287 268 256 250
205 219 230 229 225 215 209 214 215 209 217 233 231 239 247 243 246 247 250 249 241 227 232 252 260 264 264 261 280 296 290 211 186 265 272 276 284 282 295 306 303 294 292
218 226 223 219 230 224 214 210 210 211 216 224 227 234 242 242 236 233 231 238 235 241 255 260 284 283 295 320 309 307 288 246 234 244 268 290 310 304 294 294 300 313 313
228 227 225 218 216 223 219 218 219 221 219 221 224 221 224 241 242 228 211 212 209 211 190 156 95 120 80 357 341 333 283 284 280 282 284 308 316 315 310 310 298 307 296
228 224 220 219 218 215 231 271 258 246 254 246 238 232 237 243 246 227 225 227 220 197 170 174 201 215 222 231 240 255 262 268 271 273 276 283 294 300 304 309 306 294 290
221 223 220 219 217 216 221 232 267 286 271 263 254 244 242 240 237 230 224 219 211 184 171 196 209 220 229 233 237 238 251 265 265 266 277 284 290 294 294 295 299 300 295
222 227 224 221 217 215 222 230 230 239 265 283 273 258 248 240 228 221 215 197 197 182 182 205 217 221 225 230 237 242 248 260 262 269 280 288 288 288 287 286 288 289 291
220 224 223 223 216 214 219 227 229 233 240 254 279 278 258 237 213 224 204 179 190 203 203 211 218 220 223 226 232 235 231 244 254 259 266 272 278 286 287 286 289 295 295
226 235 224 208 208 208 211 218 222 227 239 242 241 246 212 174 188 209 198 198 202 209 211 216 220 218 217 220 225 226 230 238 242 247 257 267 272 274 280 284 287 288 287
222 224 216 200 216 221 215 214 215 218 231 245 244 236 210 190 202 212 215 215 211 217 217 216 221 221 215 212 213 220 225 234 241 246 256 266 274 280 283 282 283 285 291
197 202 201 204 217 219 215 205 203 209 220 234 255 245 212 179 192 209 220 226 227 226 216 212 222 226 217 210 209 215 223 232 239 245 255 263 267 275 282 284 287 292 293
183 200 213 218 216 226 227 206 195 199 209 217 222 219 208 200 208 219 236 242 238 237 230 215 219 229 229 228 223 215 218 228 234 236 247 262 265 271 276 279 282 293 299
173 189 208 214 210 214 216 218 202 205 206 210 212 215 214 214 219 224 233 240 246 250 249 240 231 230 242 249 245 238 235 239 239 234 232 242 253 263 270 277 280 283 287
164 178 199 213 218 222 221 215 205 209 207 211 212 216 220 215 222 226 236 232 251 259 269 275 254 245 248 257 258 254 247 249 256 255 241 237 244 257 264 272 279 286 290
174 177 193 201 208 214 207 205 206 210 214 213 213 212 213 216 222 225 216 202 239 269 280 293 271 263 270 278 261 253 254 253 254 264 256 226 237 257 275 279 287 289 293
Height
1442 1442 1442 1443 1443 1443 1444 1445 1445 1445 1445 1445 1445 1445 1445 1444 1444 1444 1444 1445 1445 1445 1446 1446 1447 1447 1448 1448 1448 1448 1449 1448 1446 1444 1445 1444 1443 1442 1442 1441 1440 1439 1438
1438 1438 1438 1438 1439 1439 1440 1440 1441 1441 1441 1441 1441 1441 1441 1441 1441 1440 1440 1441 1441 1441 1442 1442 1443 1443 1444 1444 1444 1444 1444 1444 1443 1441 1440 1439 1439 1438 1437 1437 1436 1435 1434
1434 1434 1434 1434 1435 1435 1435 1436 1436 1437 1437 1437 1437 1437 1437 1437 1437 1437 1437 1437 1437 1437 1438 1438 1439 1440 1440 1440 1440 1440 1440 1440 1439 1437 1436 1435 1435 1434 1433 1433 1432 1431 1431
1430 1430 1430 1430 1430 1431 1431 1432 1432 1433 1433 1433 1433 1433 1433 1433 1433 1433 1433 1433 1433 1434 1434 1435 1435 1436 1436 1436 1436 1436 1436 1435 1435 1433 1432 1431 1431 1430 1430 1429 1428 1427 1426
1425 1425 1425 1426 1427 1427 1428 1428 1428 1429 1429 1429 1429 1429 1429 1429 1429 1429 1429 1430 1430 1430 1430 1431 1431 1432 1432 1433 1432 1432 1432 1431 1430 1429 1428 1427 1426 1426 1426 1425 1424 1423 1423
1421 1421 1422 1422 1423 1423 1423 1424 1424 1425 1425 1425 1425 1425 1425 1425 1426 1426 1426 1426 1426 1426 1426 1427 1427 1428 1428 1428 1429 1428 1428 1427 1426 1425 1425 1423 1423 1422 1422 1422 1421 1420 1418
1418 1418 1418 1419 1419 1419 1419 1420 1420 1420 1421 1421 1421 1421 1421 1422 1422 1422 1422 1423 1423 1423 1423 1423 1423 1424 1424 1424 1424 1424 1424 1424 1423 1423 1421 1419 1419 1419 1418 1418 1417 1417 1416
1415 1415 1415 1415 1415 1415 1415 1416 1416 1416 1417 1417 1417 1417 1417 1418 1418 1418 1419 1419 1419 1419 1419 1419 1419 1420 1420 1420 1420 1420 1419 1419 1419 1418 1417 1417 1417 1416 1416 1415 1414 1413 1413
1411 1411 1411 1411 1412 1412 1412 1412 1412 1412 1412 1413 1413 1413 1413 1414 1414 1415 1415 1415 1414 1414 1415 1415 1415 1416 1416 1417 1416 1416 1415 1415 1415 1415 1414 1414 1414 1413 1413 1412 1411 1410 1409
1408 1408 1408 1408 1408 1408 1408 1409 1409 1409 1409 1409 1409 1409 1410 1410 1410 1411 1411 1411 1411 1411 1411 1411 1412 1412 1413 1413 1412 1412 1411 1411 1411 1410 1411 1410 1410 1410 1410 1409 1408 1408 1406
1404 1404 1404 1405 1405 1405 1405 1405 1405 1405 1405 1405 1405 1406 1406 1406 1406 1407 1407 1407 1407 1407 1407 1408 1408 1408 1409 1409 1409 1408 1408 1408 1407 1407 1407 1407 1407 1406 1406 1406 1406 1405 1404
1400 1401 1401 1401 1402 1402 1402 1402 1402 1401 1401 1401 1401 1401 1402 1402 1403 1403 1403 1404 1404 1404 1404 1404 1404 1405 1405 1406 1405 1405 1405 1405 1405 1404 1404 1403 1403 1403 1403 1403 1402 1402 1401
1397 1397 1397 1398 1398 1398 1398 1398 1398 1398 1397 1398 1398 1398 1398 1399 1399 1400 1400 1401 1401 1401 1401 1402 1402 1402 1402 1402 1402 1402 1402 1402 1402 1401 1401 1401 1401 1401 1400 1400 1399 1399 1398
1393 1394 1394 1394 1394 1394 1394 1394 1394 1394 1394 1395 1394 1394 1395 1395 1396 1396 1397 1398 1398 1398 1399 1399 1399 1399 1399 1399 1400 1400 1400 1400 1400 1399 1399 1399 1399 1398 1397 1397 1396 1395 1394
1390 1391 1391 1391 1391 1391 1391 1391 1391 1392 1392 1392 1392 1392 1392 1391 1392 1393 1394 1394 1394 1395 1396 1396 1396 1396 1396 1397 1397 1397 1397 1398 1397 1397 1397 1396 1396 1395 1395 1395 1394 1393 1392
1388 1388 1388 1388 1388 1388 1388 1388 1388 1389 1389 1389 1389 1389 1389 1390 1390 1390 1391 1391 1392 1393 1393 1393 1393 1394 1394 1394 1394 1395 1395 1395 1395 1395 1394 1394 1394 1393 1393 1392 1392 1391 1389
1385 1385 1385 1385 1385 1385 1385 1385 1385 1385 1386 1386 1386 1386 1386 1387 1387 1388 1388 1389 1390 1390 1390 1390 1391 1391 1392 1392 1392 1393 1393 1393 1393 1393 1393 1392 1392 1391 1390 1390 1389 1388 1387
1383 1383 1382 1382 1382 1382 1382 1383 1382 1382 1382 1382 1383 1383 1384 1384 1385 1385 1386 1387 1387 1387 1387 1388 1389 1389 1389 1390 1390 1391 1391 1391 1391 1391 1391 1390 1389 1389 1388 1388 1387 1386 1384
1380 1380 1380 1380 1380 1380 1380 1380 1380 1380 1380 1380 1380 1381 1381 1382 1382 1383 1384 1384 1384 1384 1385 1386 1386 1387 1387 1387 1388 1388 1388 1388 1388 1388 1388 1388 1387 1387 1386 1386 1385 1384 1383
1377 1377 1377 1377 1377 1377 1377 1377 1377 1377 1378 1378 1378 1378 1378 1379 1379 1380 1381 1381 1381 1382 1383 1383 1384 1385 1385 1385 1385 1386 1386 1386 1386 1386 1386 1386 1385 1385 1384 1384 1382 1382 1381
1374 1374 1374 1374 1374 1374 1374 1374 1375 1375 1375 1375 1375 1376 1376 1376 1377 1378 1378 1378 1379 1379 1380 1381 1381 1382 1382 1382 1383 1383 1383 1384 1384 1384 1383 1383 1383 1383 1382 1381 1380 1380 1379
1372 1372 1372 1372 1372 1372 1372 1372 1373 1373 1373 1373 1373 1374 1374 1375 1375 1376 1376 1376 1376 1377 1377 1378 1378 1379 1379 1379 1380 1380 1381 1381 1381 1381 1381 1381 1381 1380 1380 1379 1378 1378 1377
1369 1369 1369 1369 1370 1370 1370 1370 1370 1370 1371 1371 1371 1371 1372 1372 1373 1373 1373 1374 1374 1374 1375 1375 1376 1376 1377 1377 1377 1378 1378 1378 1379 1379 1379 1378 1378 1378 1378 1377 1377 1376 1375
1367 1367 1367 1367 1367 1368 1368 1368 1368 1368 1368 1368 1369 1369 1369 1370 1370 1371 1371 1371 1372 1372 1373 1373 1373 1374 1374 1375 1375 1375 1376 1376 1376 1377 1377 1377 1376 1376 1376 1375 1375 1374 1373
1365 1365 1365 1365 1365 1365 1366 1366 1366 1366 1366 1366 1367 1367 1367 1368 1368 1369 1369 1369 1370 1370 1370 1371 1371 1371 1372 1372 1373 1373 1373 1374 1374 1374 1375 1375 1375 1374 1374 1373 1373 1372 1372
1363 1363 1363 1363 1363 1363 1363 1363 1364 1364 1364 1364 1365 1365 1365 1366 1366 1367 1367 1367 1367 1368 1368 1369 1369 1369 1370 1370 1370 1371 1371 1371 1372 1372 1373 1373 1373 1372 1372 1371 1371 1371 1370